Weather History for Hamilton, ON

Change the Weather History Date:

Friday, August 23, 2013

  Actual Average Record
Temperature  
Mean Temperature 64 °F -  
Max Temperature 73 °F - - ()
Min Temperature 55 °F - - ()
Degree Days  
Heating Degree Days 1    
Growing Degree Days 14 (Base 50)    
Moisture  
Dew Point 54 °F    
Average Humidity 67    
Maximum Humidity 92    
Minimum Humidity 38    
Precipitation  
Precipitation 0.00 in - - ()
Sea Level Pressure  
Sea Level Pressure 30.09 in    
Wind  
Wind Speed 2 mph ()    
Max Wind Speed 8 mph    
Max Gust Speed -    
T = Trace of Precipitation, MM = Missing Value Source: Averaged Metar Reports

Daily Weather History Graph

Daily Weather History Graph

Search for Another Location

Airport:

Trip Planner

Search our weather history database for the weather conditions in past years. The results will help you decide how hot, cold, wet, or windy it might be!

Date:

Astronomy

Aug. 23, 2013 Rise Set
Actual Time 6:34 AM EDT 8:09 PM EDT
Civil Twilight 6:03 AM EDT 8:39 PM EDT
Nautical Twilight 5:27 AM EDT 9:15 PM EDT
Astronomical Twilight 4:48 AM EDT 9:54 PM EDT
Moon 9:19 PM EDT (8/23) 9:34 AM EDT (8/23)
Length of Visible Light 14h 35m
Length of Day
13h 35m
Waning Gibbous, 91% of the Moon is Illuminated
Aug 23
Waning Gibbous
Aug 28
Last Quarter
Sep 5
New
Sep 12
First Quarter
Sep 19
Full

Hourly Weather History & Observations

Time (EDT) Temp. Dew Point Humidity Pressure Visibility Wind Dir Wind Speed Gust Speed Precip Events Conditions
12:00 AM 64.2 °F 56.7 °F 76% 29.99 in - Calm Calm - N/A   Unknown
1:00 AM 64.0 °F 56.5 °F 76% 30.00 in - West 2.3 mph - N/A   Unknown
2:00 AM 60 °F 56 °F 83% 30.01 in - Calm Calm - -  
2:00 AM 60.1 °F 56.1 °F 87% 30.01 in - Calm Calm - N/A   Unknown
3:00 AM 58.8 °F 56.3 °F 91% 30.00 in - West 2.3 mph - N/A   Unknown
4:00 AM 58.1 °F 55.4 °F 91% 30.01 in - ESE 1.2 mph - N/A   Unknown
5:00 AM 56.5 °F 54.0 °F 91% 30.01 in - Calm Calm - N/A   Unknown
6:00 AM 55.9 °F 53.8 °F 92% 30.04 in - Calm Calm - N/A   Unknown
7:00 AM 59.9 °F 55.4 °F 85% 30.06 in - North 1.2 mph - N/A   Unknown
8:00 AM 66 °F 54 °F 57% 30.08 in - NE 2.3 mph - -  
8:00 AM 65.7 °F 54.5 °F 67% 30.08 in - NE 2.3 mph - N/A   Unknown
9:00 AM 68.4 °F 53.6 °F 59% 30.10 in - NE 5.8 mph - N/A   Unknown
10:00 AM 70.7 °F 53.1 °F 54% 30.11 in - ENE 6.9 mph - N/A   Unknown
11:00 AM 70.7 °F 52.0 °F 51% 30.12 in - East 8.1 mph - N/A   Unknown
12:00 PM 69.6 °F 52.9 °F 55% 30.13 in - East 8.1 mph - N/A   Unknown
1:00 PM 70.5 °F 53.6 °F 55% 30.13 in - ENE 6.9 mph - N/A   Unknown
2:00 PM 72 °F 52 °F 38% 30.12 in - ENE 6.9 mph - -  
2:00 PM 71.6 °F 52.0 °F 50% 30.12 in - ENE 6.9 mph - N/A   Unknown
3:00 PM 72.7 °F 51.8 °F 48% 30.12 in - East 5.8 mph - N/A   Unknown
4:00 PM 73.8 °F 53.6 °F 49% 30.12 in - ENE 5.8 mph - N/A   Unknown
5:00 PM 73.0 °F 52.5 °F 48% 30.11 in - East 5.8 mph - N/A   Unknown
6:00 PM 72.5 °F 52.9 °F 50% 30.12 in - East 4.6 mph - N/A   Unknown
7:00 PM 71.1 °F 53.2 °F 53% 30.12 in - ENE 3.5 mph - N/A   Unknown
8:00 PM 66.9 °F 53.4 °F 62% 30.12 in - NNE 2.3 mph - N/A   Unknown
9:00 PM 62.6 °F 52.7 °F 70% 30.14 in - NNE 2.3 mph - N/A   Unknown
10:00 PM 58.6 °F 52.5 °F 80% 30.16 in - WNW 1.2 mph - N/A   Unknown
11:00 PM 56.3 °F 52.0 °F 85% 30.18 in - Calm Calm - N/A   Unknown